Sussex, NJ

8:09 PM EST on November 15, 2019 (GMT -0500)
Sussex

Weather History for KFWN - September, 2019

Change the Weather History Date:

Thursday, September 19, 2019

  Actual Average Record
Temperature  
Mean Temperature 54 °F -  
Max Temperature 72 °F 73 °F 85 °F (1964)
Min Temperature 37 °F 49 °F 32 °F (1959)
Degree Days  
Heating Degree Days 11    
Growing Degree Days 4 (Base 50)    
Moisture  
Dew Point 39 °F    
Average Humidity 82    
Maximum Humidity 100    
Minimum Humidity 27    
Precipitation  
Precipitation 0.00 in - - ()
Sea Level Pressure  
Sea Level Pressure 30.34 in    
Wind  
Wind Speed 0 mph ()    
Max Wind Speed 7 mph    
Max Gust Speed -    
Visibility 5.5 miles    
Events Fog , Rain    
Averages and records for this station are not official NWS values.
T = Trace of Precipitation, MM = Missing Value Source: Averaged Metar Reports

Daily Weather History Graph

Daily Weather History Graph

Search for Another Location

Airport or City:

Astronomy

Sep. 19, 2019 Rise Set
Actual Time 6:42 AM EDT 7:01 PM EDT
Civil Twilight 6:15 AM EDT 7:28 PM EDT
Nautical Twilight 5:42 AM EDT 8:01 PM EDT
Astronomical Twilight 5:09 AM EDT 8:34 PM EDT
Moon 10:05 PM EDT (9/19) 11:46 AM EDT (9/19)
Length of Visible Light 13h 13m
Length of Day
12h 18m
Waning Gibbous, 74% of the Moon is Illuminated
Sep 19
Waning Gibbous
Sep 21
Last Quarter
Sep 28
New
Oct 5
First Quarter
Oct 13
Full

Hourly Weather History & Observations

Time (EDT) Temp. Dew Point Humidity Pressure Visibility Wind Dir Wind Speed Gust Speed Precip Events Conditions
12:53 AM 45.0 °F 43.0 °F 93% 30.34 in 10.0 mi Calm Calm - N/A   Clear
1:53 AM 43.0 °F 41.0 °F 93% 30.35 in 1.8 mi Calm Calm - N/A   Clear
2:01 AM 42.1 °F 41.0 °F 96% 30.34 in 1.0 mi Calm Calm - N/A   Clear
2:05 AM 42.1 °F 39.9 °F 92% 30.34 in 2.0 mi Calm Calm - N/A   Clear
2:12 AM 43.0 °F 39.9 °F 89% 30.34 in 7.0 mi Calm Calm - N/A   Clear
2:53 AM 43.0 °F 39.9 °F 89% 30.34 in 10.0 mi Calm Calm - N/A   Clear
3:23 AM 41.0 °F 39.0 °F 93% 30.34 in 1.2 mi Calm Calm - N/A   Partly Cloudy
3:27 AM 41.0 °F 39.0 °F 93% 30.34 in 0.8 mi Calm Calm - N/A   Mist
3:50 AM 41.0 °F 37.4 °F 87% 30.33 in 1.2 mi Calm Calm - N/A   Partly Cloudy
3:53 AM 41.0 °F 39.0 °F 93% 30.34 in 1.8 mi Calm Calm - N/A   Partly Cloudy
4:00 AM 41.0 °F 39.0 °F 93% 30.34 in 3.0 mi Calm Calm - N/A   Partly Cloudy
4:20 AM 39.9 °F 37.9 °F 93% 30.34 in 1.5 mi Calm Calm - N/A   Partly Cloudy
4:22 AM 39.0 °F 37.9 °F 96% 30.34 in 1.0 mi Calm Calm - N/A   Mist
4:32 AM 39.9 °F 37.0 °F 89% 30.34 in 1.8 mi Calm Calm - N/A   Partly Cloudy
4:53 AM 39.9 °F 37.9 °F 93% 30.35 in 10.0 mi Calm Calm - 0.00 in Rain Light Rain
5:07 AM 39.0 °F 37.9 °F 96% 30.34 in 2.5 mi Calm Calm - 0.00 in   Partly Cloudy
5:09 AM 39.0 °F 37.0 °F 93% 30.34 in 1.2 mi Calm Calm - 0.00 in   Scattered Clouds
5:11 AM 39.0 °F 37.0 °F 93% 30.34 in 0.8 mi Calm Calm - 0.00 in   Mist
5:48 AM 37.4 °F 37.4 °F 100% 30.34 in 1.5 mi Calm Calm - 0.00 in   Overcast
5:53 AM 37.9 °F 37.0 °F 97% 30.35 in 3.0 mi Calm Calm - 0.00 in   Overcast
6:13 AM 37.0 °F 36.0 °F 96% 30.35 in 1.0 mi Calm Calm - N/A   Mist
6:20 AM 37.9 °F 36.0 °F 93% 30.35 in 0.5 mi Calm Calm - 0.00 in Fog , Rain Light Rain
6:29 AM 37.0 °F 36.0 °F 96% 30.35 in 1.5 mi Calm Calm - 0.00 in   Mostly Cloudy
6:32 AM 37.0 °F 36.0 °F 96% 30.35 in 3.0 mi Calm Calm - 0.00 in   Mostly Cloudy
6:37 AM 37.0 °F 36.0 °F 96% 30.35 in 1.5 mi Calm Calm - 0.00 in   Mostly Cloudy
6:40 AM 37.0 °F 36.0 °F 96% 30.35 in 0.8 mi Calm Calm - 0.00 in   Mist
6:53 AM 37.0 °F 36.0 °F 96% 30.36 in 0.2 mi Calm Calm - 0.00 in Fog Fog
7:08 AM 37.0 °F 36.0 °F 96% 30.36 in 1.5 mi Calm Calm - N/A   Mostly Cloudy
7:11 AM 37.0 °F 36.0 °F 96% 30.36 in 4.0 mi Calm Calm - N/A   Mostly Cloudy
7:27 AM 37.9 °F 37.0 °F 97% 30.36 in 10.0 mi Calm Calm - N/A   Scattered Clouds
7:53 AM 39.9 °F 39.9 °F 100% 30.37 in 10.0 mi Calm Calm - N/A   Partly Cloudy
8:53 AM 46.9 °F 45.0 °F 93% 30.38 in 10.0 mi Calm Calm - N/A   Clear
9:53 AM 55.9 °F 46.0 °F 69% 30.39 in 10.0 mi ESE 3.5 mph - N/A   Clear
10:53 AM 61.0 °F 44.1 °F 54% 30.38 in 10.0 mi Variable 6.9 mph - N/A   Clear
11:53 AM 64.0 °F 39.9 °F 41% 30.36 in 10.0 mi Calm Calm - N/A   Clear
12:53 PM 66.9 °F 37.9 °F 34% 30.34 in 10.0 mi Variable 3.5 mph - N/A   Clear
1:53 PM 69.1 °F 37.0 °F 31% 30.33 in 10.0 mi Calm Calm - N/A   Clear
2:53 PM 71.1 °F 37.0 °F 29% 30.31 in 10.0 mi Variable 3.5 mph - N/A   Clear
3:53 PM 71.1 °F 35.1 °F 27% 30.30 in 10.0 mi Variable 4.6 mph - 0.00 in   Clear
4:53 PM 71.1 °F 35.1 °F 27% 30.30 in 10.0 mi SSW 4.6 mph - N/A   Clear
5:53 PM 69.1 °F 36.0 °F 30% 30.30 in 10.0 mi SSW 3.5 mph - N/A   Clear
6:53 PM 61.0 °F 43.0 °F 52% 30.30 in 10.0 mi Calm Calm - N/A   Clear
7:53 PM 52.0 °F 44.1 °F 74% 30.29 in 10.0 mi Calm Calm - N/A   Clear
8:53 PM 48.0 °F 44.1 °F 86% 30.30 in 10.0 mi Calm Calm - N/A   Clear
9:53 PM 46.9 °F 43.0 °F 86% 30.29 in 10.0 mi Calm Calm - N/A   Clear
10:53 PM 45.0 °F 42.1 °F 90% 30.30 in 10.0 mi Calm Calm - N/A   Clear
11:53 PM 43.0 °F 41.0 °F 93% 30.29 in 10.0 mi Calm Calm - N/A   Clear